Regional Weather Roundup
Issued by NWS Albany, NY

Home | Current Version | Previous Version | Text Only | Print | Product List | Glossary On
Versions: 1 2 3 4 5 6 7 8 9 10 11 12 13 14 15 16 17 18 19 20 21 22 23 24 25 26 27
000
ASUS41 KALY 012110
RWRALY

NEW YORK STATE HOURLY WEATHER ROUNDUP
NATIONAL WEATHER SERVICE ALBANY NY
500 PM EDT SUN MAY 01 2016

NOTE: "FAIR" INDICATES FEW OR NO CLOUDS BELOW 12,000 FEET WITH NO
SIGNIFICANT WEATHER AND/OR NO OBSTRUCTIONS TO VISIBILITY.

NYZ032-033-038>043-046>054-057>066-NYZ062>081-082-084-012200-
EAST


CITY           SKY/WX    TMP DP  RH WIND       PRES   REMARKS
ALBANY         CLOUDY    46  40  79 VRB7G16   30.12F
GLENS FALLS    CLOUDY    46  43  89 S7        30.11F FOG
POUGHKEEPSIE   CLOUDY    49  44  83 SE6       30.12F
NEWBURGH       LGT RAIN  45  45 100 SE9       30.13F FOG
MONTGOMERY     LGT RAIN  48  45  89 SE7       30.11F
WHITE PLAINS   LGT RAIN  46  44  93 SE8       30.12F FOG
ISLIP          LGT RAIN  46  42  86 E12       30.14F FOG
NEW YORK CITY  LGT RAIN  50  43  77 E9        30.12F
CENTRAL PARK   LGT RAIN  48  43  82 E7        30.14F
$$

NYZ005>009-017-018-044>046-055-056-012200-
CENTRAL


CITY           SKY/WX    TMP DP  RH WIND       PRES   REMARKS
FULTON         LGT RAIN  49  45  86 VRB5      29.97S FOG
SYRACUSE       CLOUDY    47  45  93 E12       29.97F
ROME           LGT RAIN  46  45  96 E10       30.04S FOG
ELMIRA         CLOUDY    56  46  69 S12       29.95F
BINGHAMTON     CLOUDY    44  42  93 S10       29.99F
MONTICELLO     CLOUDY    43  43 100 E8        30.09F
$$

NYZ026>034-041>043-087-012200-
NORTH


CITY           SKY/WX    TMP DP  RH WIND       PRES   REMARKS
WATERTOWN      LGT RAIN  48  45  89 CALM      30.01S FOG
FORT DRUM      NOT AVBL
MASSENA        LGT RAIN  45  43  93 NE8       30.08F FOG
SARANAC LAKE   CLOUDY    44  38  79 SE5       30.02F
PLATTSBURGH    LGT RAIN  46  44  93 SE6       30.10F FOG
$$

NYZ001>004-010>016-019>021-085-012200-
WEST


CITY           SKY/WX    TMP DP  RH WIND       PRES   REMARKS
NIAGARA FALLS  CLOUDY    50  46  86 N9        29.94R FOG
BUFFALO        CLOUDY    54  51  90 N7        29.93R
DUNKIRK        CLOUDY    49  48  97 W5        29.96R FOG
JAMESTOWN      CLOUDY    55  50  82 W9        29.93S
WELLSVILLE     CLOUDY    56  51  84 SE7       29.93S
ROCHESTER      DRIZZLE   52  50  93 NE8       29.92S FOG
PENN YAN       CLOUDY    60  51  72 SE9       29.91F
$$

             KEY
       WCI = WIND CHILL INDEX
       VSB = VISIBILITY
       HX  = HEAT INDEX
$$




USA.gov is the U.S. government's official web portal to all federal, state and local government web resources and services.